User: anonymous   Login
Location: Betra
(48.4113°N, 8.6634°E)
Time: 18:25:24
(UTC+00:00)
Language:

SL-16 R/B - Orbit

View from above orbital plane
View from above orbital plane
View from above satellite
View from above satellite

Ground track
Ground track

The orbit data is extracted from the following two-line orbital elements,

1 27006U 01056F   24198.89858101 -.00000008  00000-0  42281-4 0  9991
2 27006  99.6896 346.2937 0015355  91.6672  22.1386 13.71034043130864
Epoch (UTC): 16 July 2024 21:33:57
Eccentricity: 0.0015355
inclination: 99.6896°
perigee height: 984 km
apogee height: 1007 km
right ascension of ascending node: 346.2937°
argument of perigee: 91.6672°
revolutions per day: 13.71034043
mean anomaly at epoch: 22.1386°
orbit number at epoch: 13086

The dashed part of the orbit path shows where the satellite is in the earth's shadow,  

DLR